Weather in Gribanovo

Russia / Nizhny Novgorod Oblast'     55°28′08″N   45°13′11″E
temp.,
°C
wind,
m/s
gust,
m/s
humid.,
%
clouds,
%
prec.,
mm/h
press.,
hPa
HPBL,
m
12 april, mon
mon1200:000nne23100100 0.0 103576
03:000e2599100 0.0 1036148
06:00+1ene310100100 0.0 1037200
09:00+2ene3109899 0.0 1037254
12:00+4ene51290100 0.0 1037322
15:00+5e51185100 0.0 1036330
18:00+4ene41092100 0.0 1036190
21:00+3e3797100 0.0 1035118
13 april, tue
tue1300:00+3ese349799 0.0 103564
03:00+3ese3596100 0.0 103455
06:00+4se3393100 0.0 103326
09:00+9sse268965 0.0 1033157
12:00+15sse476858 0.0 1031717
15:00+17s475291 0.0 1030656
18:00+13sse336122 0.0 102927
21:00+10sse336934 0.0 103036
14 april, wed
wed1400:00+8s33725 0.0 102927
03:00+7s337391 0.0 102917
06:00+6sse227583 0.0 102922
09:00+12sse355883 0.0 1028254
12:00+16sse454377 0.0 1027809
15:00+18sse563295 0.0 10251184
18:00+15sse334975 0.0 102441
21:00+11sse3359100 0.0 102324
15 april, thu
thu1500:00+9s3368100 0.0 102327
03:00+7s2272100 0.0 102211
06:00+7s2274100 0.0 102216
09:00+12s345983 0.0 1021253
12:00+16s3443100 0.0 10191030
15:00+18ssw233516 0.0 10181582
18:00+16ssw12460 0.0 101711
21:00+12ssw11532 0.0 101610
16 april, fri
fri1600:00+10sw11605 0.0 101610
03:00+9wsw11675 0.0 101510
06:00+8nnw227313 0.0 101514
09:00+10n6775100 0.0 1016454
12:00+9nne7774100 0.0 1018792
15:00+3nne81393100 1.3 1020575
18:00+5ne61283100 3.4 10201010
21:00+4nne81370100 3.4 1021760